Date String (YYYY-MM-DD hh:mm:ss) UTC,Instrument flags,absolute air pressure of the measurement (hPa),sample flow rate (lpm),inlet stack bypass flow (lpm),air temperature of the measurement (°C),ambient temperature measured by the external sensor (°C),aerosol sample conditioner tube jacket temperature (°C),OPC LED temperature (°C),internal box temperature (°C),relative humidity of the measurement (%),span deviation,mass concentration of particles derived from Lorenz-Mie calculation of OPC scattering (μg/m³),mass concentration of particles derived from Lorenz-Mie calculation of OPC scattering (μg/m³),mass concentration of particles derived from Lorenz-Mie calculation of OPC scattering (μg/m³)
DateTimeUTC,F1_M11,P_M11,Q1_M11,Q2_M11,T1_M11,T2_M11,T3_M11,T4_M11,T5_M11,U1_M11,ZSPAN_M11,X0_M11,X2_M11,X1_M11
2024-02-19 11:00:00,SystemResetWarning,0824.5,4.99,000.00,018.4,017.6,000.0,026.8,020.0,12.6,0000.0,0000.35,0000.25,0000.21
2024-02-19 11:01:00,SystemResetWarning,0824.4,5.00,000.00,018.3,017.7,000.0,026.8,020.0,12.8,0000.0,0000.35,0000.25,0000.21
2024-02-19 11:02:00,SystemResetWarning,0824.6,5.00,000.00,018.3,017.6,000.0,026.8,020.0,12.6,0000.0,0000.35,0000.25,0000.21
2024-02-19 11:03:00,SystemResetWarning,0824.6,5.00,000.00,018.3,017.6,000.0,026.8,020.0,12.9,0000.0,0000.79,0000.25,0000.21
2024-02-19 11:04:00,SystemResetWarning,0824.6,5.01,000.00,018.3,017.6,000.0,026.8,020.0,12.7,0000.0,0000.90,0000.25,0000.22
2024-02-19 11:05:00,SystemResetWarning,0824.7,5.01,000.00,018.3,017.6,000.0,026.8,020.0,12.6,0000.0,0000.90,0000.25,0000.22
2024-02-19 11:06:00,SystemResetWarning,0824.7,5.00,000.00,018.3,017.6,000.0,026.8,020.0,12.8,0000.0,0000.94,0000.26,0000.22
2024-02-19 11:07:00,SystemResetWarning,0824.7,5.00,000.00,018.3,017.6,000.0,026.8,020.0,12.7,0000.0,0000.95,0000.26,0000.22
2024-02-19 11:08:00,SystemResetWarning,0824.7,5.00,000.00,018.3,017.6,000.0,026.8,020.0,12.6,0000.0,0000.93,0000.26,0000.22
2024-02-19 11:09:00,SystemResetWarning,0824.7,5.00,000.00,018.3,017.6,000.0,026.8,020.0,12.7,0000.0,0000.91,0000.25,0000.21
2024-02-19 11:10:00,SystemResetWarning,0824.7,5.00,000.00,018.3,017.6,000.0,026.8,020.0,12.8,0000.0,0000.90,0000.25,0000.21
2024-02-19 11:11:00,SystemResetWarning,0824.6,5.00,000.00,018.3,017.6,000.0,026.8,020.0,12.7,0000.0,0000.90,0000.25,0000.21
2024-02-19 11:12:00,SystemResetWarning,0824.6,5.00,000.00,018.3,017.6,000.0,026.8,020.0,12.4,0000.0,0000.89,0000.24,0000.21
2024-02-19 11:13:00,SystemResetWarning,0824.7,5.00,000.00,018.3,017.6,000.0,026.8,020.0,12.4,0000.0,0000.89,0000.24,0000.21
2024-02-19 11:14:00,SystemResetWarning,0824.8,5.00,000.00,018.4,017.6,000.0,026.8,020.0,12.5,0000.0,0000.59,0000.25,0000.21
2024-02-19 11:15:00,SystemResetWarning,0824.7,5.00,000.00,018.4,017.6,000.0,026.8,020.0,12.4,0000.0,0000.38,0000.26,0000.21
2024-02-19 11:16:00,SystemResetWarning,0824.7,4.99,000.00,018.4,017.6,000.0,026.8,020.0,12.7,0000.0,0000.40,0000.27,0000.21
2024-02-19 11:17:00,SystemResetWarning,0824.8,5.00,000.00,018.4,017.6,000.0,026.8,020.0,12.7,0000.0,0000.38,0000.27,0000.21
2024-02-19 11:18:00,SystemResetWarning,0824.7,5.00,000.00,018.4,017.6,000.0,026.8,020.0,12.5,0000.0,0000.43,0000.27,0000.21
2024-02-19 11:19:00,SystemResetWarning,0824.7,5.01,000.00,018.3,017.6,000.0,026.8,020.0,12.5,0000.0,0000.48,0000.27,0000.20
2024-02-19 11:20:00,SystemResetWarning,0824.7,4.99,000.00,018.3,017.6,000.0,026.8,020.0,12.7,0000.0,0000.53,0000.29,0000.21
2024-02-19 11:21:00,SystemResetWarning,0824.7,5.00,000.00,018.3,017.6,000.0,026.8,020.0,12.4,0000.0,0000.58,0000.31,0000.22
2024-02-19 11:22:00,SystemResetWarning,0824.8,5.01,000.00,018.3,017.6,000.0,026.8,020.0,12.4,0000.0,0000.62,0000.33,0000.22
2024-02-19 11:23:00,SystemResetWarning,0824.8,5.01,000.00,018.3,017.6,000.0,026.8,020.0,12.4,0000.0,0000.62,0000.33,0000.22
2024-02-19 11:24:00,SystemResetWarning,0824.7,5.00,000.00,018.3,017.6,000.0,026.8,020.0,12.5,0000.0,0000.62,0000.33,0000.22
2024-02-19 11:25:00,SystemResetWarning,0824.7,5.00,000.00,018.3,017.6,000.0,026.8,020.0,12.7,0000.0,0000.60,0000.33,0000.22
2024-02-19 11:26:00,SystemResetWarning,0824.7,4.99,000.00,018.3,017.6,000.0,026.8,020.0,12.7,0000.0,0000.58,0000.32,0000.22
2024-02-19 11:27:00,SystemResetWarning,0824.7,4.99,000.00,018.3,017.6,000.0,026.8,020.0,12.3,0000.0,0000.56,0000.31,0000.22
2024-02-19 11:28:00,SystemResetWarning,0824.8,5.00,000.00,018.3,017.6,000.0,026.8,020.0,12.5,0000.0,0000.55,0000.30,0000.23
2024-02-19 11:29:00,SystemResetWarning,0824.9,5.00,000.00,018.3,017.6,000.0,026.8,020.0,12.6,0000.0,0000.56,0000.31,0000.24
2024-02-19 11:30:00,SystemResetWarning,0824.8,5.00,000.00,018.3,017.6,000.0,026.9,020.0,12.6,0000.0,0000.56,0000.31,0000.24
2024-02-19 11:31:00,SystemResetWarning,0824.8,5.00,000.00,018.3,017.6,000.0,026.9,020.0,12.6,0000.0,0000.51,0000.30,0000.24
2024-02-19 11:32:00,SystemResetWarning,0824.8,4.99,000.00,018.3,017.6,000.0,026.9,020.0,12.4,0000.0,0000.50,0000.29,0000.24
2024-02-19 11:33:00,SystemResetWarning,0824.8,5.01,000.00,018.3,017.6,000.0,026.9,020.0,12.4,0000.0,0000.51,0000.29,0000.24
2024-02-19 11:34:00,SystemResetWarning,0824.9,5.01,000.00,018.3,017.6,000.0,026.9,020.0,12.5,0000.0,0000.51,0000.29,0000.24
2024-02-19 11:35:00,SystemResetWarning,0824.8,4.99,000.00,018.3,017.6,000.0,026.9,020.0,12.5,0000.0,0000.51,0000.29,0000.24
2024-02-19 11:36:00,SystemResetWarning,0824.8,4.99,000.00,018.3,017.5,000.0,026.9,020.0,12.5,0000.0,0000.49,0000.28,0000.24
2024-02-19 11:37:00,SystemResetWarning,0824.8,5.03,000.00,018.3,017.5,000.0,026.9,020.0,12.6,0000.0,0000.56,0000.30,0000.24
2024-02-19 11:38:00,SystemResetWarning,0824.7,5.00,000.00,018.3,017.5,000.0,026.8,020.0,12.5,0000.0,0001.65,0000.31,0000.24
2024-02-19 11:39:00,SystemResetWarning,0824.7,5.00,000.00,018.3,017.5,000.0,026.8,020.0,12.5,0000.0,0001.84,0000.32,0000.24
2024-02-19 11:40:00,SystemResetWarning,0824.7,5.00,000.00,018.3,017.5,000.0,026.8,020.0,12.4,0000.0,0001.79,0000.31,0000.23
2024-02-19 11:41:00,SystemResetWarning,0824.9,5.00,000.00,018.3,017.5,000.0,026.9,020.0,12.5,0000.0,0001.74,0000.31,0000.23
2024-02-19 11:42:00,SystemResetWarning,0824.9,5.00,000.00,018.3,017.4,000.0,026.9,020.0,12.7,0000.0,0001.83,0000.34,0000.24
2024-02-19 11:43:00,SystemResetWarning,0824.8,5.00,000.00,018.3,017.5,000.0,026.9,020.0,12.9,0000.0,0001.84,0000.35,0000.24
2024-02-19 11:44:00,SystemResetWarning,0824.8,5.02,000.00,018.3,017.4,000.0,026.9,020.0,12.4,0000.0,0001.81,0000.35,0000.25
2024-02-19 11:45:00,SystemResetWarning,0824.9,4.99,000.00,018.3,017.4,000.0,026.9,020.0,12.7,0000.0,0001.80,0000.34,0000.24
2024-02-19 11:46:00,SystemResetWarning,0824.9,4.99,000.00,018.3,017.4,000.0,026.9,020.0,12.7,0000.0,0001.81,0000.35,0000.25
2024-02-19 11:47:00,SystemResetWarning,0824.8,5.00,000.00,018.3,017.4,000.0,026.9,020.0,12.6,0000.0,0001.95,0000.36,0000.25
2024-02-19 11:48:00,SystemResetWarning,0824.8,5.02,000.00,018.3,017.4,000.0,026.8,020.0,12.5,0000.0,0001.93,0000.36,0000.26
2024-02-19 11:49:00,SystemResetWarning,0824.9,4.99,000.00,018.3,017.4,000.0,026.9,020.0,12.6,0000.0,0001.61,0000.37,0000.26
2024-02-19 11:50:00,SystemResetWarning,0824.9,4.99,000.00,018.3,017.4,000.0,026.9,020.0,12.6,0000.0,0000.80,0000.38,0000.26
2024-02-19 11:51:00,SystemResetWarning,0824.9,5.01,000.00,018.3,017.4,000.0,026.9,020.0,12.6,0000.0,0000.79,0000.38,0000.26
2024-02-19 11:52:00,SystemResetWarning,0824.8,5.01,000.00,018.3,017.4,000.0,026.9,020.0,12.7,0000.0,0000.79,0000.38,0000.26
2024-02-19 11:53:00,SystemResetWarning,0824.9,4.99,000.00,018.3,017.4,000.0,026.9,020.0,12.7,0000.0,0000.72,0000.36,0000.26
2024-02-19 11:54:00,SystemResetWarning,0825.0,5.00,000.00,018.3,017.4,000.0,026.9,020.0,12.7,0000.0,0000.69,0000.35,0000.27
2024-02-19 11:55:00,SystemResetWarning,0824.9,4.99,000.00,018.3,017.4,000.0,026.9,020.0,12.7,0000.0,0000.70,0000.35,0000.26
2024-02-19 11:56:00,SystemResetWarning,0825.0,5.01,000.00,018.3,017.4,000.0,026.9,020.0,12.6,0000.0,0000.69,0000.35,0000.27
2024-02-19 11:57:00,SystemResetWarning,0825.1,5.00,000.00,018.3,017.4,000.0,026.9,020.0,12.7,0000.0,0000.77,0000.39,0000.27
2024-02-19 11:58:00,SystemResetWarning,0825.1,4.99,000.00,018.3,017.4,000.0,026.9,020.0,12.8,0000.0,0000.69,0000.39,0000.27
2024-02-19 11:59:00,SystemResetWarning,0825.0,5.00,000.00,018.3,017.4,000.0,026.9,020.0,12.9,0000.0,0000.69,0000.39,0000.27
